FENGYUN 1C DEB, 32099

Orbit data source: Space-Track

FENGYUN 1C DEB, 32099 is space debris in SSO originally from a launch on Mon, 10 May 1999 UTC launched from the Taiyaun Space Center, China (TSC). Fengyun 1C debris stems from the Chinese weather satellite Fengyun-1C, which was intentionally destroyed by a Chinese anti-satellite missile in 2007. This event dramatically increased the amount of space debris, with thousands of trackable fragments posing hazards to satellites and human spaceflight. The Fengyun 1C debris cloud has become a focal point in discussions about space sustainability and the need for international regulations to prevent the creation of new debris.

Loading next visibility...
Identifier
32099, 1999-025CQR
Orbit
SSO
Country
Flag of CNCN / PRC
Related business
Manufacturer
Unknown
Mission
Spacecraft
Bus & Motor
Unknown
Mass
Unknown
Launch date (UTC)
1999-05-10 (27 years ago)
Launch vehicle
Unknown
Launch site
Taiyaun Space Center, China (TSC)
Object type
Payload
Rocket body
Debris
Shape & HBR
Unknown shape, 0.1 m
Radar Cross Section
Small (<0.1 m²)

Expand to show TLE details & history
Last TLE update: 1 week ago

TLE from 1 week ago
0 FENGYUN 1C DEB
1 32099U 99025CQR 25347.18353535  .00003154  00000-0  15539-2 0  9990
2 32099  98.2819 318.9761 0342883 273.8166 102.5610 13.91775545646949
Epoch: 2025-12-13T04:24Z
TLE epoch observation values (Epoch: 2025-12-13T04:24:17.454Z)
Latitude
19.95758°
Longitude
167.77467°
Altitude
987.425 km
Speed
7.328 km/s
True Right ascension
21h 03m 50s
True Declination
19° 51' 03"
Sunlit
Object was in daylight at epoch
Visualization orbit readout
Latitude
Unknown
Longitude
Unknown
Altitude
Unknown
Speed
Unknown
Apparent Right ascension
Unknown
Apparent Declination
Unknown
Sunlit
N/A
Visualization observer readout
Local Sidereal Time
10:23:09
Azimuth
Unknown
Elevation
Unknown
Doppler factor
Unknown
Orbital elements
Apogee altitude
1,169.813 km
Perigee altitude
669.36 km
Semi-major axis
7,297.724 km
Eccentricity
0.03429
Inclination
98.2819°
RAAN
318.9761°
Arg. of periapsis
273.8166°
True anomaly
106.3579°
Mean anomaly
102.561°
Eccentric anomaly
104.46331°
Mean motion
3.48146 °/min
Orbital period
103.4 mins
BSTAR
0.0015539
Loading maneuver chart data...
Computing Atmospheric mass density...

Documentation

Showing up to 5 results
|